Tracking 27188 objects as of 1-Apr-2023
HD Live streaming from Space Station
objects crossing your sky now

TITAN 3C TRANSTAGE R/B

Track TITAN 3C TRANSTAGE R/B now!


NORAD ID: 10942
Int'l Code: 1978-058B
Perigee: 29,774.9 km
Apogee: 42,177.4 km
Inclination: 9.1 °
Period: 1,445.4 minutes
Semi major axis: 42347 km
RCS: Unknown
Launch date: June 10, 1978
Source: United States (US)
Launch site: AIR FORCE EASTERN TEST RANGE (AFETR)

Note: This is a ROCKET BODY
Your satellite tracking list
Your tracking list is empty




NASA's NSSDC Master Catalog

Two Line Element Set (TLE):
1 10942U 78058B   23091.31225575 -.00000276  00000-0  00000+0 0  9994
2 10942   9.0982  23.8440 1464389 104.6128 271.9923  0.99624642 15072
Source of the keplerian elements: McCants